Other Surface Observations
Issued by NWS

Home | Current Version | Previous Version | Text Only | Print | Product List | Glossary On
Versions: 1 2 3 4 5 6 7 8 9 10 11 12 13 14 15 16 17 18 19 20 21 22 23 24 25 26 27 28 29 30 31 32 33 34 35 36 37 38 39 40 41 42 43 44 45 46 47 48 49 50
525
SXUS52 KTAE 260619
OSOTAE
OSOTAE
North Florida/South Alabama/Southwest Georgia Weather Roundup
National Weather Service Tallahassee Florida
200 AM EDT MON JUN 26 2017

Note: "fair" indicates few or no clouds below 12,000 feet with no
significant weather and/or obstructions to visibility.

!FLZ017-115-028-034-025-260700
...North Florida...

CITY           SKY/WX    TMP DP  RH WIND       PRES   REMARKS
TALLAHASSEE    CLOUDY    75  75 100 NW3       30.09S
APALACHICOLA   MOCLDY    75  75 100 N3        30.08F
PERRY          CLOUDY    76  74  96 CALM      30.08F
CROSS CITY     CLEAR     73  72  94 CALM      30.07S
JACKSONVILLE   MOCLDY    77  76  96 S3        30.05F
$$

!FLZ112-006-005-002-011-260700
...Florida Panhandle...

CITY           SKY/WX    TMP DP  RH WIND       PRES   REMARKS
MARIANNA       MOCLDY    74  72  93 N5        30.10S
BONIFAY        NOT AVBL
PANAMA CITY NW FAIR      75  73  93 NW3       30.10S
TYNDALL AFB    DRIZZLE   76  74  93 N5        30.10R
TYND DRONE APT MOCLDY    76  74  95 N6        30.09S
DE FUNIAK SPR  FAIR      72  64  75 N5        30.13S
EGLIN AFB      PTCLDY    73  69  85 N5        30.11S
DESTIN         MOCLDY    79  75  87 N8        30.11R
HURLBURT       PTCLDY    72  68  86 N5        30.10S
CRESTVIEW      CLEAR     71  62  73 CALM      30.14S
PENSACOLA      PTCLDY    76  63  64 N8        30.12S
$$

!ALZ063-066-260700
...South Alabama...

CITY           SKY/WX    TMP DP  RH WIND       PRES   REMARKS
DOTHAN         PTCLDY    70  64  81 N6        30.15F
OZARK CAIRNS   CLEAR     70  63  78 CALM      30.11F
FT RUCKER HELI PTCLDY    67  63  87 CALM      30.12F
RUCKER HELI 3  FAIR      69  63  80 N5        30.12F
RUCKER HELI 2  FAIR      68  64  88 N3        30.11F
FLORALA APT    CLEAR     68  63  84 VRB3      30.14F
ANDALUSIA      CLEAR     72  60  66 N3        30.12F
TROY           CLEAR     66  65  96 CALM      30.14S
EUFALA         FAIR      64  62  93 NW3       30.11F
MOBILE         CLEAR     72  65  78 N6        30.14F
$$

!GAZ120>161-260700
...Southwest and South Central Georgia...

CITY           SKY/WX    TMP DP  RH WIND       PRES   REMARKS
THOMASVILLE    CLOUDY    73  73 100 CALM      30.11S FOG
BAINBRIDGE     CLOUDY    77  72  83 N3        30.11S
MOODY AFB      LGT RAIN  75  73  94 CALM      30.08F
VALDOSTA       CLOUDY    74  74 100 CALM      30.09S FOG
MOULTRIE       CLOUDY    73  72  94 CALM      30.11S FOG
BLAKELY        MOCLDY    70  63  78 CALM      30.12S
ALBANY         CLOUDY    72  65  78 NW5       30.12F
TIFTON         FAIR      74  74 100 NW3       30.10S
FITZGERALD     CLOUDY    74  71  90 CALM      30.12S
CORDELE        FAIR      74  66  76 CALM      30.12S
AMERICUS       FAIR      66  59  77 CALM      30.13F
HOMERVILLE     CLOUDY    75  75 100 CALM      30.09F
$$

!GMZ750-755-770-775-260700
...Coastal and Buoy Obs...

STATION/POSITION TIME  TEMP    WIND        PRES    VSBY  WAVE
                       AIR SEA DIR/SP/G                  HT/PER
                 (UTC) (F)     (DEG/KT/KT) (MB)    (MI)  (FT/S)
KEATON BEACH     0600   77      40/  3/  5 1017.8F
CEDAR KEY        0600   79      30/  3/  4 1018.7F
C TOWER          0600   80      10/  3/  5 1019.3S
APALACHICOLA BUO 0550   82 83  240/  2/  2 1018.2F         1/ 7
PANAMA CITY BUOY 0550   80 82   CALM  /  2 1018.3F         2/ 7
MOBILE BUOY      0600   82 84   80/  8/ 10 1019.1
ORANGE BCH AL BU 0550   80 83   40/ 17/ 21 1018.8F         2/ 3
$$




USA.gov is the U.S. government's official web portal to all federal, state and local government web resources and services.